Location: Allie Creek
(37.5926°N, 89.8526°W)
Time: 03:39:21
(UTC+00:00)

SL-16 R/B - Pass Details

Date: 25 April 2024
Orbit: 841 x 845 km, 71.0° (Epoch: 27 May)

Event Time Altitude Azimuth Distance (km) Brightness Sun altitude
Exits shadow 04:41:49 37° 332° (NNW) 1,301 3.5 -36.1°
Drops below altitude 10° 04:45:49 10° 9° (N) 2,470 5.2 -36.4°
Sets 04:48:25 0° 16° (NNE) 3,409 6.0 -36.5°
